• In Czech Republic
  • List of Countries
  • For 7 days
  • Water Temperature
  • Satellite Maps
  • Weather Map
  • Weather Widgets
  • user-avatar
    Login

    Hourly Weather Kisumu

    Today, 20 February, Tuesday

    Time Temperature Precipitation Wind Pressure Humidity
    00:00 +23°C° 0.2 mm 1 mps 663 mmHg 79%
    01:00 +23°C° 0.2 mm 1 mps 663 mmHg 79%
    02:00 +22°C° 0 mm 1 mps 663 mmHg 80%
    03:00 +21°C° 0.1 mm 2 mps 663 mmHg 80%
    04:00 +21°C° 0.1 mm 2 mps 663 mmHg 79%
    05:00 +20°C° 0.1 mm 2 mps 663 mmHg 79%
    06:00 +23°C° 0 mm 2 mps 663 mmHg 72%
    07:00 +25°C° 0 mm 2 mps 664 mmHg 65%
    08:00 +27°C° 0 mm 1 mps 664 mmHg 57%
    09:00 +29°C° 0 mm 1 mps 665 mmHg 50%
    10:00 +31°C° 0 mm 1 mps 665 mmHg 42%
    11:00 +33°C° 0 mm 1 mps 665 mmHg 35%
    12:00 +34°C° 0 mm 2 mps 664 mmHg 36%
    13:00 +32°C° 0 mm 2 mps 663 mmHg 38%
    14:00 +32°C° 0 mm 2 mps 663 mmHg 38%
    15:00 +31°C° 0.1 mm 2 mps 662 mmHg 43%
    16:00 +30°C° 0.1 mm 2 mps 662 mmHg 47%
    17:00 +29°C° 0.1 mm 2 mps 662 mmHg 51%
    18:00 +27°C° 0.2 mm 2 mps 662 mmHg 59%
    19:00 +26°C° 0.2 mm 1 mps 662 mmHg 66%
    20:00 +24°C° 0.2 mm 1 mps 662 mmHg 73%
    21:00 +24°C° 0.5 mm 1 mps 662 mmHg 74%
    22:00 +24°C° 0.5 mm 1 mps 663 mmHg 76%
    23:00 +23°C° 0.5 mm 1 mps 663 mmHg 77%

    Tomorrow, 21 February, Wednesday

    Time Temperature Precipitation Wind Pressure Humidity
    00:00 +23°C° 0.4 mm 1 mps 663 mmHg 77%
    01:00 +23°C° 0.4 mm 1 mps 662 mmHg 76%
    02:00 +23°C° 0.4 mm 2 mps 662 mmHg 76%
    03:00 +21°C° 0 mm 2 mps 662 mmHg 77%
    04:00 +21°C° 0 mm 2 mps 662 mmHg 77%
    05:00 +21°C° 0 mm 2 mps 662 mmHg 77%
    06:00 +23°C° 0 mm 1 mps 663 mmHg 70%
    07:00 +25°C° 0 mm 1 mps 663 mmHg 63%
    08:00 +27°C° 0 mm 1 mps 664 mmHg 55%
    09:00 +29°C° 0 mm 1 mps 664 mmHg 49%
    10:00 +31°C° 0 mm 2 mps 664 mmHg 42%
    11:00 +35°C° 0 mm 2 mps 665 mmHg 35%
    12:00 +34°C° 0 mm 2 mps 664 mmHg 36%
    13:00 +34°C° 0 mm 2 mps 663 mmHg 37%
    14:00 +34°C° 0 mm 3 mps 662 mmHg 38%
    15:00 +31°C° 1.1 mm 3 mps 662 mmHg 45%
    16:00 +29°C° 1.1 mm 3 mps 661 mmHg 53%
    17:00 +28°C° 1.1 mm 3 mps 661 mmHg 60%
    18:00 +26°C° 2.2 mm 2 mps 661 mmHg 68%
    19:00 +25°C° 2.2 mm 1 mps 661 mmHg 76%
    20:00 +24°C° 2.2 mm 1 mps 661 mmHg 84%
    21:00 +24°C° 0.6 mm 1 mps 662 mmHg 84%
    22:00 +23°C° 0.6 mm 1 mps 662 mmHg 83%
    23:00 +23°C° 0.6 mm 1 mps 662 mmHg 83%

    Day after tomorrow, 22 February, Thursday

    Time Temperature Precipitation Wind Pressure Humidity
    00:00 +23°C° 0.5 mm 1 mps 662 mmHg 83%
    01:00 +22°C° 0.5 mm 1 mps 661 mmHg 83%
    02:00 +22°C° 0.5 mm 1 mps 661 mmHg 83%
    03:00 +21°C° 0 mm 2 mps 661 mmHg 83%
    04:00 +20°C° 0 mm 2 mps 661 mmHg 83%
    05:00 +20°C° 0 mm 2 mps 661 mmHg 83%
    06:00 +23°C° 0 mm 2 mps 662 mmHg 75%
    07:00 +24°C° 0 mm 2 mps 662 mmHg 68%
    08:00 +26°C° 0 mm 2 mps 663 mmHg 60%
    09:00 +29°C° 0 mm 2 mps 664 mmHg 51%
    10:00 +31°C° 0 mm 2 mps 664 mmHg 42%
    11:00 +35°C° 0 mm 2 mps 664 mmHg 33%
    12:00 +35°C° 0 mm 2 mps 663 mmHg 35%
    13:00 +34°C° 0 mm 3 mps 662 mmHg 37%
    14:00 +34°C° 0 mm 4 mps 661 mmHg 38%
    15:00 +32°C° 0.3 mm 4 mps 661 mmHg 45%
    16:00 +30°C° 0.3 mm 3 mps 661 mmHg 51%
    17:00 +28°C° 0.3 mm 3 mps 661 mmHg 58%
    18:00 +27°C° 1.2 mm 2 mps 661 mmHg 65%
    19:00 +26°C° 1.2 mm 2 mps 661 mmHg 71%
    20:00 +24°C° 1.2 mm 1 mps 662 mmHg 78%
    21:00 +24°C° 0.3 mm 1 mps 662 mmHg 79%
    22:00 +23°C° 0.3 mm 1 mps 662 mmHg 80%
    23:00 +23°C° 0.3 mm 2 mps 662 mmHg 82%

    23 February, Friday

    Time Temperature Precipitation Wind Pressure Humidity
    00:00 +23°C° 0.2 mm 2 mps 662 mmHg 82%
    01:00 +21°C° 0.2 mm 2 mps 661 mmHg 83%
    02:00 +21°C° 0.2 mm 2 mps 661 mmHg 84%
    03:00 +20°C° 0 mm 2 mps 661 mmHg 83%
    04:00 +20°C° 0 mm 2 mps 661 mmHg 83%
    05:00 +20°C° 0 mm 2 mps 661 mmHg 83%
    06:00 +23°C° 0 mm 2 mps 662 mmHg 74%
    07:00 +25°C° 0 mm 2 mps 663 mmHg 66%
    08:00 +26°C° 0 mm 2 mps 664 mmHg 58%
    09:00 +29°C° 0 mm 2 mps 664 mmHg 49%
    10:00 +31°C° 0 mm 2 mps 664 mmHg 40%
    11:00 +35°C° 0 mm 2 mps 664 mmHg 31%
    12:00 +35°C° 0 mm 2 mps 663 mmHg 32%
    13:00 +35°C° 0 mm 3 mps 662 mmHg 32%
    14:00 +35°C° 0 mm 4 mps 661 mmHg 32%
    15:00 +33°C° 0 mm 4 mps 661 mmHg 40%
    16:00 +30°C° 0 mm 4 mps 661 mmHg 48%
    17:00 +28°C° 0 mm 4 mps 661 mmHg 56%
    18:00 +27°C° 0.2 mm 3 mps 661 mmHg 64%
    19:00 +25°C° 0.2 mm 2 mps 662 mmHg 71%
    20:00 +24°C° 0.2 mm 1 mps 662 mmHg 79%
    21:00 +24°C° 0.5 mm 1 mps 662 mmHg 80%
    22:00 +23°C° 0.5 mm 1 mps 662 mmHg 81%
    23:00 +23°C° 0.5 mm 1 mps 663 mmHg 81%

    24 February, Saturday

    Time Temperature Precipitation Wind Pressure Humidity
    00:00 +23°C° 0.2 mm 1 mps 662 mmHg 82%
    01:00 +22°C° 0.2 mm 1 mps 662 mmHg 83%
    02:00 +22°C° 0.2 mm 1 mps 661 mmHg 83%
    03:00 +20°C° 0 mm 2 mps 662 mmHg 84%
    04:00 +20°C° 0 mm 2 mps 662 mmHg 84%
    05:00 +20°C° 0 mm 2 mps 662 mmHg 84%
    06:00 +23°C° 0 mm 2 mps 663 mmHg 76%
    07:00 +24°C° 0 mm 1 mps 664 mmHg 67%
    08:00 +26°C° 0 mm 1 mps 665 mmHg 58%
    09:00 +29°C° 0 mm 1 mps 665 mmHg 49%
    10:00 +31°C° 0 mm 1 mps 665 mmHg 39%
    11:00 +34°C° 0 mm 1 mps 665 mmHg 29%
    12:00 +35°C° 0 mm 2 mps 664 mmHg 28%
    13:00 +36°C° 0 mm 3 mps 663 mmHg 27%
    14:00 +36°C° 0 mm 4 mps 662 mmHg 26%
    15:00 +34°C° 0.2 mm 4 mps 662 mmHg 36%
    16:00 +32°C° 0.2 mm 5 mps 662 mmHg 45%
    17:00 +29°C° 0.2 mm 5 mps 662 mmHg 55%
    18:00 +27°C° 0.7 mm 4 mps 662 mmHg 64%
    19:00 +26°C° 0.7 mm 2 mps 663 mmHg 73%
    20:00 +24°C° 0.7 mm 1 mps 663 mmHg 83%
    21:00 +24°C° 1.2 mm 1 mps 663 mmHg 82%
    22:00 +24°C° 1.2 mm 1 mps 663 mmHg 81%
    23:00 +24°C° 1.2 mm 1 mps 663 mmHg 80%

    25 February, Sunday

    Time Temperature Precipitation Wind Pressure Humidity
    00:00 +23°C° 0.3 mm 1 mps 663 mmHg 81%
    01:00 +23°C° 0.3 mm 1 mps 662 mmHg 81%
    02:00 +23°C° 0.3 mm 1 mps 662 mmHg 81%
    03:00 +22°C° 0 mm 1 mps 662 mmHg 82%
    04:00 +22°C° 0 mm 1 mps 663 mmHg 82%
    05:00 +21°C° 0 mm 2 mps 663 mmHg 82%
    06:00 +23°C° 0 mm 1 mps 664 mmHg 76%
    07:00 +25°C° 0 mm 1 mps 664 mmHg 69%
    08:00 +26°C° 0 mm 1 mps 665 mmHg 63%
    09:00 +29°C° 0 mm 1 mps 665 mmHg 54%
    10:00 +31°C° 0 mm 1 mps 665 mmHg 45%
    11:00 +34°C° 0 mm 2 mps 665 mmHg 36%
    12:00 +35°C° 0 mm 3 mps 664 mmHg 34%
    13:00 +35°C° 0 mm 3 mps 663 mmHg 33%
    14:00 +36°C° 0 mm 4 mps 662 mmHg 31%
    15:00 +34°C° 0.2 mm 4 mps 662 mmHg 39%
    16:00 +32°C° 0.2 mm 5 mps 662 mmHg 46%
    17:00 +29°C° 0.2 mm 5 mps 662 mmHg 54%
    18:00 +28°C° 0.4 mm 3 mps 662 mmHg 63%
    19:00 +26°C° 0.4 mm 2 mps 662 mmHg 72%
    20:00 +24°C° 0.4 mm 1 mps 663 mmHg 81%
    21:00 +24°C° 0.1 mm 1 mps 663 mmHg 82%
    22:00 +23°C° 0.1 mm 1 mps 663 mmHg 83%
    23:00 +23°C° 0.1 mm 1 mps 663 mmHg 84%
    Show more